Location: Forli
(44.2227°N, 12.0407°E)
Time: 20:12:02
(UTC+02:00)

AO-73 - Visible Passes

Search period start: 11 April 2026 00:00
Search period end: 21 April 2026 00:00
Orbit: 514 x 568 km, 97.8° (Epoch: 11 April)

Date Brightness Start Highest point End Pass type
(mag) Time Alt. Az. Time Alt. Az. Time Alt. Az.
11 Apr ? 04:33:16 10° NNE 04:36:49 35° E 04:39:41 14° SSE visible
12 Apr ? 04:26:13 10° NE 04:29:35 29° E 04:32:35 12° SSE visible
12 Apr ? 06:01:00 10° NNW 06:03:57 22° WNW 06:06:56 10° WSW visible
13 Apr ? 04:19:10 10° NE 04:22:20 24° E 04:25:27 10° SSE visible
13 Apr ? 05:53:36 10° NNW 05:56:49 26° WNW 06:00:02 10° SW visible
14 Apr ? 04:12:10 10° NE 04:15:05 20° E 04:18:01 10° SE visible
14 Apr ? 05:46:15 10° N 05:49:39 31° WNW 05:53:05 10° SW visible
15 Apr ? 04:05:14 10° NE 04:07:49 17° E 04:10:24 10° SE visible
15 Apr ? 05:38:54 10° N 05:42:28 37° WNW 05:46:03 10° SW visible
16 Apr ? 03:58:24 10° ENE 04:00:31 14° E 04:02:38 10° SE visible
16 Apr ? 05:31:34 10° N 05:35:15 45° WNW 05:38:59 10° SW visible
17 Apr ? 03:51:46 10° ENE 03:53:12 12° E 03:54:38 10° ESE visible
17 Apr ? 05:24:15 10° N 05:28:02 56° WNW 05:31:51 10° SSW visible
18 Apr ? 05:16:57 10° N 05:20:48 69° WNW 05:24:41 10° SSW visible
19 Apr ? 05:09:38 10° NNE 05:13:31 84° WNW 05:17:27 10° SSW visible
20 Apr ? 05:02:21 10° NNE 05:06:15 79° ESE 05:10:11 10° S visible
